TimeCDT,TemperatureF,Dew PointF,Humidity,Sea Level PressureIn,VisibilityMPH,Wind Direction,Wind SpeedMPH,Gust SpeedMPH,PrecipitationIn,Events,Conditions,WindDirDegrees,DateUTC
12:53 AM,57.9,-9999,N/A,29.67,10.0,West,9.2,-,N/A,,Clear,260,2013-05-20 05:53:00
1:53 AM,55.9,-9999,N/A,29.65,10.0,West,10.4,-,N/A,,Clear,270,2013-05-20 06:53:00
2:53 AM,57.0,-9999,N/A,29.65,10.0,West,11.5,-,N/A,,Clear,270,2013-05-20 07:53:00
3:53 AM,57.0,-9999,N/A,29.65,10.0,WNW,11.5,-,N/A,,Clear,290,2013-05-20 08:53:00
4:53 AM,55.0,-9999,N/A,29.68,10.0,WSW,5.8,-,N/A,,Clear,250,2013-05-20 09:53:00
7:53 AM,57.9,-9999,N/A,29.73,10.0,West,9.2,-,N/A,,Clear,260,2013-05-20 12:53:00
8:53 AM,63.0,-9999,N/A,29.74,10.0,NW,16.1,29.9,N/A,,Clear,320,2013-05-20 13:53:00
9:53 AM,66.9,48.0,51,29.75,10.0,NW,17.3,21.9,N/A,,Clear,320,2013-05-20 14:53:00
10:53 AM,69.1,46.9,45,29.73,10.0,WNW,17.3,26.5,N/A,,Clear,300,2013-05-20 15:53:00
11:53 AM,72.0,46.0,40,29.72,10.0,West,15.0,26.5,N/A,,Partly Cloudy,280,2013-05-20 16:53:00
12:53 PM,75.0,45.0,34,29.70,10.0,WNW,19.6,28.8,N/A,,Mostly Cloudy,300,2013-05-20 17:53:00
1:53 PM,72.0,44.1,37,29.71,10.0,NW,16.1,31.1,N/A,,Mostly Cloudy,310,2013-05-20 18:53:00
2:53 PM,75.0,44.1,33,29.70,10.0,WNW,17.3,25.3,N/A,,Mostly Cloudy,300,2013-05-20 19:53:00
3:53 PM,75.9,43.0,31,29.69,10.0,WNW,21.9,31.1,N/A,,Partly Cloudy,300,2013-05-20 20:53:00
4:53 PM,75.9,43.0,31,29.68,10.0,WNW,23.0,33.4,N/A,,Scattered Clouds,300,2013-05-20 21:53:00
5:53 PM,73.0,41.0,31,29.70,10.0,WNW,26.5,40.3,N/A,,Clear,300,2013-05-20 22:53:00
6:53 PM,68.0,43.0,40,29.73,10.0,WNW,23.0,33.4,N/A,,Clear,290,2013-05-20 23:53:00
7:53 PM,64.0,43.0,46,29.74,10.0,NW,20.7,31.1,N/A,,Clear,310,2013-05-21 00:53:00
9:53 PM,57.9,46.0,65,29.77,10.0,WNW,10.4,-,N/A,,Clear,290,2013-05-21 02:53:00
10:53 PM,59.0,46.0,62,29.81,10.0,WNW,12.7,-,N/A,,Mostly Cloudy,300,2013-05-21 03:53:00
11:53 PM,57.0,46.0,67,29.81,10.0,West,9.2,-,N/A,,Partly Cloudy,270,2013-05-21 04:53:00